METEOR 2-8 DEB

Satellite information

Favourite Embed

Satellite Type and Status

DEBRISIN ORBIT

Key statistics

Satellite METEOR 2-8 DEB at a glance.

Uptime

15755

Days in orbit

Revolutions

≈ 14.2

Per day

Orbit

LEO

Low Earth Orbit

Inclination

82.5

Latest

Satellite identification and parameters

Extended collection of information and parameters for METEOR 2-8 DEB.

Object identification

Identified? True

Debris? True

Object name: METEOR 2-8 DEB

International designator: 1982-025U

Object number (NORAD): 36334

Object ID (CCSDS): 36334

Country: COMMONWEALTH OF INDEPENDENT STATES (CIS)

Current information (Y/N): Y

RCS size: SMALL

Orbital parameters

Period: 101.077 minutes

Inclination: 82.516 deg

SMA: 7187.78 km

Apoapsis: 824.655 km

Periapsis: 794.636 km

RAAN: 168.3956 deg

Eccentricy: 0.0020882

Argument of periapsis: 188.6307 deg

Mean anomaly: 171.4519 deg

Mean motion: 14.24657853 rev/day

Mean motion (dot): 0.0000208 rev/day2

B* drag term: 0.00088606 1/REarth

Two-line elements (TLE)

Creation date: May 10, 2025, 5:27 p.m.

Reference frame: TEME

Reference center: EARTH

Epoch: May 10, 2025, 10:29 a.m. UTC

TLE line 0: 0 METEOR 2-8 DEB

TLE line 1: 1 36334U 82025U 25130.43739879 .00002080 00000-0 88606-3 0 9998

TLE line 2: 2 36334 82.5160 168.3956 0020882 188.6307 171.4519 14.24657853584497

Live tracking on map

Real-time ground track for satellite METEOR 2-8 DEB.

In-orbit conjunctions

A list of the most updated potential collisions computed for object METEOR 2-8 DEB.

Target Orbit TCA Probability of collision Miss distance Type
ORBCOMM FM 3 SSO 2025-05-14 07:42:23 0.000355127 825.0 (m) PAYLOAD
DMSP 5D-2 F13 DEB SSO 2024-07-27 06:24:35 0.0002122937 76.0 (m) DEBRIS

Associated space launch

Second generation soviet meteorological satellite

METEOR 2-8 DEB was lifted into orbit during the mission ‘Tsiklon-3 | Meteor-2 8’, on board a Tsiklon-3 space rocket.

The launch took place on March 25, 1982, 9:50 a.m. from 32/1.

For more information about the launch, click the button.

Launch to space Tsiklon-3 | Meteor-2 8
Tsiklon-3 | Meteor-2 8

Agency: N/A

Status: Launch Successful

Launch date: March 25, 1982, 9:50 a.m. UTC

Rocket: Tsiklon-3

Launch pad: 32/1

Location: Plesetsk Cosmodrome, Russian Federation

...

Latest news about this satellite

There are no fresh news available about this satellite. Check back as we update our databases every day.


Newsletter sign-up

Weekly statistics, charts and insights to help you stay on top of the space industry.